When you browse on this site, cookies collect data to enhance your experience and personalize the content and advertising you see.
Visit our Privacy Policy to learn more. By continuing to use the site, you agree to this use of cookies and data.
  • In United Kingdom
  • List of Countries
  • For 7 days
  • Water Temperature
  • Weather Map
  • Weather Widgets
  • user-avatar
    Login

    Hourly Weather Pechiivka

    Today, 20 August, Tuesday

    Time Temperature Precipitation Wind Pressure Humidity
    00:00 +19°C° 0 mm 2 mps 748 mmHg 73%
    01:00 +18°C° 0 mm 2 mps 748 mmHg 75%
    02:00 +18°C° 0 mm 2 mps 748 mmHg 79%
    03:00 +18°C° 0 mm 2 mps 748 mmHg 80%
    04:00 +17°C° 0 mm 2 mps 749 mmHg 82%
    05:00 +17°C° 0 mm 2 mps 749 mmHg 83%
    06:00 +19°C° 0 mm 3 mps 749 mmHg 75%
    07:00 +22°C° 0 mm 3 mps 749 mmHg 67%
    08:00 +25°C° 0 mm 3 mps 749 mmHg 58%
    09:00 +26°C° 0 mm 3 mps 749 mmHg 53%
    10:00 +27°C° 0 mm 3 mps 749 mmHg 48%
    11:00 +29°C° 0 mm 4 mps 749 mmHg 42%
    12:00 +29°C° 0 mm 4 mps 749 mmHg 40%
    13:00 +30°C° 0 mm 4 mps 749 mmHg 38%
    14:00 +32°C° 0 mm 4 mps 749 mmHg 35%
    15:00 +30°C° 0 mm 4 mps 749 mmHg 37%
    16:00 +30°C° 0 mm 4 mps 749 mmHg 40%
    17:00 +29°C° 0 mm 3 mps 749 mmHg 42%
    18:00 +27°C° 0 mm 3 mps 749 mmHg 48%
    19:00 +25°C° 0 mm 3 mps 749 mmHg 53%
    20:00 +22°C° 0 mm 3 mps 749 mmHg 59%
    21:00 +21°C° 0 mm 3 mps 750 mmHg 61%
    22:00 +21°C° 0 mm 3 mps 750 mmHg 63%
    23:00 +20°C° 0 mm 3 mps 750 mmHg 65%

    Tomorrow, 21 August, Wednesday

    Time Temperature Precipitation Wind Pressure Humidity
    00:00 +20°C° 0 mm 3 mps 750 mmHg 67%
    01:00 +19°C° 0 mm 3 mps 750 mmHg 69%
    02:00 +19°C° 0 mm 3 mps 750 mmHg 71%
    03:00 +18°C° 0 mm 3 mps 750 mmHg 73%
    04:00 +18°C° 0 mm 3 mps 750 mmHg 74%
    05:00 +18°C° 0 mm 3 mps 749 mmHg 76%
    06:00 +20°C° 0 mm 3 mps 750 mmHg 69%
    07:00 +22°C° 0 mm 4 mps 750 mmHg 62%
    08:00 +25°C° 0 mm 4 mps 750 mmHg 55%
    09:00 +26°C° 0 mm 5 mps 750 mmHg 51%
    10:00 +27°C° 0 mm 5 mps 749 mmHg 46%
    11:00 +29°C° 0 mm 5 mps 749 mmHg 42%
    12:00 +29°C° 0 mm 5 mps 749 mmHg 40%
    13:00 +30°C° 0 mm 5 mps 749 mmHg 37%
    14:00 +32°C° 0 mm 5 mps 748 mmHg 35%
    15:00 +30°C° 0 mm 5 mps 748 mmHg 39%
    16:00 +30°C° 0 mm 5 mps 748 mmHg 42%
    17:00 +29°C° 0 mm 5 mps 747 mmHg 45%
    18:00 +27°C° 0 mm 4 mps 747 mmHg 53%
    19:00 +25°C° 0 mm 4 mps 747 mmHg 60%
    20:00 +22°C° 0 mm 3 mps 747 mmHg 67%
    21:00 +21°C° 0 mm 3 mps 747 mmHg 71%
    22:00 +21°C° 0 mm 3 mps 747 mmHg 74%
    23:00 +20°C° 0 mm 3 mps 747 mmHg 78%

    Day after tomorrow, 22 August, Thursday

    Time Temperature Precipitation Wind Pressure Humidity
    00:00 +20°C° 0 mm 3 mps 747 mmHg 80%
    01:00 +19°C° 0 mm 3 mps 747 mmHg 82%
    02:00 +19°C° 0 mm 3 mps 747 mmHg 84%
    03:00 +18°C° 0 mm 3 mps 747 mmHg 86%
    04:00 +18°C° 0 mm 3 mps 747 mmHg 88%
    05:00 +18°C° 0 mm 3 mps 747 mmHg 90%
    06:00 +20°C° 0 mm 3 mps 747 mmHg 82%
    07:00 +22°C° 0 mm 4 mps 747 mmHg 75%
    08:00 +25°C° 0 mm 4 mps 747 mmHg 67%
    09:00 +26°C° 0 mm 4 mps 747 mmHg 62%
    10:00 +28°C° 0 mm 4 mps 747 mmHg 56%
    11:00 +29°C° 0 mm 4 mps 747 mmHg 50%
    12:00 +30°C° 0 mm 4 mps 747 mmHg 47%
    13:00 +32°C° 0 mm 4 mps 747 mmHg 43%
    14:00 +32°C° 0 mm 4 mps 746 mmHg 39%
    15:00 +32°C° 0 mm 4 mps 746 mmHg 42%
    16:00 +30°C° 0 mm 3 mps 746 mmHg 45%
    17:00 +29°C° 0 mm 3 mps 746 mmHg 47%
    18:00 +28°C° 0 mm 3 mps 747 mmHg 51%
    19:00 +26°C° 0 mm 3 mps 747 mmHg 56%
    20:00 +25°C° 0 mm 3 mps 747 mmHg 60%
    21:00 +24°C° 0 mm 3 mps 747 mmHg 62%
    22:00 +24°C° 0 mm 3 mps 747 mmHg 65%
    23:00 +22°C° 0 mm 3 mps 747 mmHg 67%

    23 August, Friday

    Time Temperature Precipitation Wind Pressure Humidity
    00:00 +21°C° 0 mm 3 mps 747 mmHg 69%
    01:00 +21°C° 0 mm 3 mps 747 mmHg 71%
    02:00 +21°C° 0 mm 3 mps 748 mmHg 72%
    03:00 +20°C° 0 mm 3 mps 748 mmHg 73%
    04:00 +20°C° 0 mm 3 mps 747 mmHg 75%
    05:00 +19°C° 0 mm 3 mps 747 mmHg 76%
    06:00 +21°C° 0 mm 3 mps 748 mmHg 69%
    07:00 +23°C° 0 mm 4 mps 748 mmHg 62%
    08:00 +26°C° 0 mm 4 mps 748 mmHg 56%
    09:00 +28°C° 0 mm 4 mps 748 mmHg 52%
    10:00 +29°C° 0 mm 4 mps 748 mmHg 48%
    11:00 +30°C° 0 mm 4 mps 748 mmHg 44%
    12:00 +32°C° 0 mm 4 mps 748 mmHg 44%
    13:00 +32°C° 0 mm 4 mps 748 mmHg 44%
    14:00 +32°C° 0 mm 4 mps 748 mmHg 44%
    15:00 +30°C° 0 mm 4 mps 748 mmHg 46%
    16:00 +30°C° 0 mm 4 mps 748 mmHg 49%
    17:00 +29°C° 0 mm 4 mps 748 mmHg 51%
    18:00 +28°C° 0 mm 4 mps 748 mmHg 57%
    19:00 +26°C° 0 mm 4 mps 748 mmHg 64%
    20:00 +23°C° 0 mm 4 mps 748 mmHg 70%
    21:00 +23°C° 0 mm 4 mps 748 mmHg 74%
    22:00 +22°C° 0 mm 4 mps 748 mmHg 78%
    23:00 +21°C° 0 mm 4 mps 748 mmHg 81%

    24 August, Saturday

    Time Temperature Precipitation Wind Pressure Humidity
    00:00 +21°C° 0 mm 4 mps 748 mmHg 85%
    01:00 +20°C° 0 mm 4 mps 748 mmHg 88%
    02:00 +19°C° 0 mm 4 mps 748 mmHg 91%
    03:00 +19°C° 0 mm 4 mps 749 mmHg 91%
    04:00 +19°C° 0 mm 4 mps 749 mmHg 90%
    05:00 +18°C° 0 mm 4 mps 749 mmHg 90%
    06:00 +20°C° 0 mm 5 mps 749 mmHg 82%
    07:00 +21°C° 0 mm 5 mps 749 mmHg 75%
    08:00 +23°C° 0 mm 5 mps 750 mmHg 67%
    09:00 +25°C° 0 mm 5 mps 749 mmHg 61%
    10:00 +27°C° 0 mm 5 mps 749 mmHg 55%
    11:00 +28°C° 0 mm 5 mps 749 mmHg 49%
    12:00 +29°C° 0 mm 5 mps 749 mmHg 47%
    13:00 +29°C° 0 mm 5 mps 749 mmHg 46%
    14:00 +30°C° 0 mm 5 mps 749 mmHg 44%
    15:00 +29°C° 0 mm 5 mps 749 mmHg 45%
    16:00 +29°C° 0 mm 5 mps 749 mmHg 46%
    17:00 +28°C° 0 mm 5 mps 749 mmHg 47%
    18:00 +26°C° 0 mm 5 mps 749 mmHg 50%
    19:00 +23°C° 0 mm 4 mps 749 mmHg 53%
    20:00 +21°C° 0 mm 4 mps 749 mmHg 56%
    21:00 +21°C° 0 mm 4 mps 749 mmHg 57%
    22:00 +20°C° 0 mm 3 mps 749 mmHg 58%
    23:00 +19°C° 0 mm 3 mps 749 mmHg 60%

    25 August, Sunday

    Time Temperature Precipitation Wind Pressure Humidity
    00:00 +19°C° 0 mm 3 mps 749 mmHg 61%
    01:00 +18°C° 0 mm 3 mps 749 mmHg 61%
    02:00 +18°C° 0 mm 3 mps 748 mmHg 62%
    03:00 +17°C° 0 mm 3 mps 748 mmHg 63%
    04:00 +17°C° 0 mm 3 mps 748 mmHg 65%
    05:00 +16°C° 0 mm 3 mps 748 mmHg 66%
    06:00 +18°C° 0 mm 3 mps 748 mmHg 60%
    07:00 +20°C° 0 mm 4 mps 749 mmHg 55%
    08:00 +22°C° 0 mm 4 mps 749 mmHg 50%
    09:00 +25°C° 0 mm 4 mps 749 mmHg 44%
    10:00 +26°C° 0 mm 4 mps 749 mmHg 39%
    11:00 +28°C° 0 mm 4 mps 749 mmHg 33%
    12:00 +28°C° 0 mm 4 mps 749 mmHg 32%
    13:00 +29°C° 0 mm 4 mps 749 mmHg 31%
    14:00 +29°C° 0 mm 4 mps 748 mmHg 29%
    15:00 +29°C° 0 mm 4 mps 748 mmHg 31%
    16:00 +28°C° 0 mm 4 mps 748 mmHg 32%
    17:00 +27°C° 0 mm 4 mps 748 mmHg 33%
    18:00 +25°C° 0 mm 4 mps 748 mmHg 39%
    19:00 +22°C° 0 mm 4 mps 749 mmHg 45%
    20:00 +20°C° 0 mm 3 mps 749 mmHg 50%
    21:00 +19°C° 0 mm 3 mps 749 mmHg 55%
    22:00 +18°C° 0 mm 3 mps 749 mmHg 59%
    23:00 +18°C° 0 mm 3 mps 749 mmHg 64%
    Show more